Location: The D'Auria's Ocala Star Observatory
(29.0276°N, 82.1742°W)
Time: 19:24:01
(UTC-04:00)

Daily predictions for brighter satellites

Satellite Brightness Start Highest point End
(mag) Time Altitude Azimuth Time Altitude Azimuth Time Altitude Azimuth
METEOR-M 4.3 20:14:19 10° SSE 20:19:30 54° ENE 20:24:42 10° N
Okean 1-7 Rocket 3.9 20:17:47 10° N 20:22:10 72° W 20:26:32 10° S
Cosmos 2369 3.9 20:17:01 10° S 20:22:24 48° ESE 20:27:50 10° NNE
Cosmos 1633 2.9 20:19:44 10° S 20:23:22 73° W 20:27:02 10° N
Cosmos 1315 Rocket 3.6 20:20:53 10° SSW 20:24:48 57° W 20:28:46 10° N
H-2A R/B 4.4 20:22:50 10° ESE 20:25:25 17° ENE 20:28:02 10° NNE
Okean 2 4.4 20:22:36 10° NNE 20:26:09 27° E 20:29:39 10° SE
Cosmos 1777 Rocket 4.5 20:24:16 10° N 20:29:14 41° ENE 20:34:11 10° SE
Meteor 2-21 Rocket 4.5 20:23:32 10° S 20:29:41 71° E 20:35:51 10° N
Helios 1A 2.9 20:27:12 10° SSE 20:31:20 74° ENE 20:35:30 10° N
SJ-6B 4.0 20:30:00 10° S 20:33:34 44° W 20:37:09 10° NNW
Meteor 1-23 Rocket 4.3 20:32:05 10° N 20:37:41 61° E 20:43:21 10° SSE
NOSS 3-4 (A) 4.5 20:32:37 10° NNW 20:39:12 39° NE 20:45:21 13° ESE
NOSS 3-4 (C) 4.5 20:32:45 10° NNW 20:39:19 38° NE 20:45:25 13° ESE
Cosmos 2208 Rocket 4.0 20:36:06 10° SSW 20:41:22 89° ESE 20:46:45 10° NNE
CZ-2D R/B 4.0 20:40:27 10° SE 20:43:55 33° ENE 20:47:24 10° N
FengYun 1-2 T 4.3 20:38:56 10° SSE 20:44:32 69° ENE 20:50:08 10° N
Meteor 2-14 Rocket 4.4 20:39:56 10° S 20:46:05 86° E 20:52:15 10° N
Spot 2 Rocket 3.8 20:42:05 10° S 20:47:10 72° WSW 20:52:15 10° NNW
Meteor 2-15 4.5 20:42:43 10° N 20:48:40 57° E 20:54:35 10° SSE
OAO 2 Rocket 3.9 20:43:56 10° W 20:48:50 55° NNW 20:53:50 10° ENE
Cosmos 1461 4.3 20:48:00 10° N 20:50:58 20° ENE 20:52:18 17° E
Hubble Space Telescope 1.0 20:46:56 10° W 20:51:02 58° SSW 20:53:43 20° ESE
Cosmos 1025 Rocket 3.5 20:47:02 10° NNW 20:51:19 64° W 20:55:34 10° S
Cosmos 1455 Rocket 2.9 20:48:04 10° S 20:52:22 84° E 20:56:43 10° N
FENGYUN 3A 3.8 20:47:23 10° SSE 20:52:34 53° ENE 20:57:45 10° N
Cosmos 1892 Rocket 3.5 20:49:48 10° N 20:54:17 78° E 20:58:45 10° S
Cosmos 2123 Rocket 4.1 20:48:37 10° N 20:54:37 52° E 21:00:36 10° SSE
ATLAS 3B CENTAUR R/B -0.3 20:53:18 10° W 20:55:19 54° S 20:55:36 46° SSE
Cosmos 1656 3.8 20:51:03 10° S 20:56:30 52° ESE 21:01:54 10° NNE
Resurs 1-3 3.9 20:52:48 10° S 20:57:10 71° WSW 21:01:32 10° NNW
CZ-4B DEB 2.8 20:56:12 10° S 20:59:28 87° W 21:02:45 10° NNW
Cosmos 2227 Rocket 2.7 20:56:01 10° N 21:01:17 39° ENE 21:04:23 22° ESE
Cosmos 1500 4.2 21:02:27 25° E 21:02:27 25° E 21:05:26 10° NE
Cosmos 1602 Rocket 4.4 20:59:35 10° NNE 21:03:29 29° E 21:04:39 26° ESE
Cosmos 1346 Rocket 2.7 21:03:03 10° N 21:07:00 71° E 21:10:05 16° SSE
ALOS 2.2 21:02:50 10° SSE 21:07:30 83° ENE 21:12:11 10° N
Iridium 4 Rocket 3.7 21:08:24 10° NNE 21:12:57 38° E 21:14:17 31° ESE
Cosmos 2082 3.9 21:10:08 10° N 21:15:35 49° ENE 21:18:05 29° SE
CZ-4B DEB 4.4 21:13:43 25° SSE 21:15:44 82° ENE 21:19:22 10° N
Cosmos 1153 Rocket 4.4 21:10:20 10° S 21:16:28 65° E 21:22:33 10° NNE
Resurs 01 Rocket 3.6 21:12:54 10° SSW 21:16:44 29° W 21:20:35 10° NW
Cosmos 2297 Rocket 2.8 21:11:32 10° N 21:16:46 37° ENE 21:18:32 30° ESE
MDS-1 4.0 21:16:00 10° WSW 21:18:04 72° S 21:18:32 56° ESE
USA 186 1.8 21:21:26 37° S 21:22:37 79° W 21:25:46 10° NNW
CZ-3C R/B 3.5 20:17:40 10° W 21:23:17 60° SSW 21:28:19 28° SE
ERS-1 Rocket 3.4 21:27:56 39° E 21:28:41 41° ENE 21:33:23 10° N
Delta 2 Rocket 4.1 21:23:21 10° WNW 21:28:55 62° NNE 21:30:45 39° E
Cosmos 1802 Rocket 4.5 21:29:34 35° ESE 21:30:58 39° E 21:36:50 10° NNE
Cosmos 1447 Rocket 4.5 21:28:24 10° N 21:34:41 65° E 21:37:43 32° SSE
GOES 2 Rocket 4.3 21:35:32 10° WSW 21:39:05 26° SSW 21:39:24 26° SSW
GPS 2-15 Rocket1 4.5 21:36:17 10° SW 21:39:33 25° S 21:39:33 25° S
OTV 4 2.5 21:39:23 10° NW 21:41:08 24° NNW 21:41:08 24° NNW
Cosmos 1898 Rocket 4.0 21:38:46 10° N 21:43:27 40° ENE 21:43:27 40° ENE
Cosmos 2016 Rocket 4.3 21:47:10 42° ENE 21:47:10 42° ENE 21:52:26 10° NNE
Cosmos 1697 Rocket 2.9 21:42:01 10° SSW 21:47:39 72° WNW 21:53:18 10° NNE
Lacrosse 5 3.7 21:45:01 10° N 21:48:07 17° NE 21:48:07 17° NE
SPOT 5 4.3 21:50:57 26° NE 21:50:57 26° NE 21:53:47 10° NNE
Cosmos 1066 Rocket 4.2 21:44:44 10° N 21:50:22 60° E 21:50:48 58° ESE
Cosmos 1975 4.5 21:48:07 10° SSW 21:51:51 34° W 21:55:36 10° NNW
Cosmos 468 Rocket 4.4 21:49:28 10° SSW 21:54:31 60° WNW 21:59:35 10° N
Cosmos 2173 Rocket 3.9 21:56:18 35° S 21:59:12 83° E 22:05:34 10° N
Cosmos 1814 Rocket 4.5 21:58:32 10° SSW 22:03:48 61° WNW 22:09:05 10° N
Lacrosse 5 rocket 3.0 22:03:49 10° NNW 22:05:31 25° NNW 22:05:31 25° NNW
Cosmos 1980 Rocket 2.2 22:04:34 10° SSW 22:10:12 79° WNW 22:15:55 10° NNE
Cosmos 2100 Rocket 4.2 22:07:12 23° SSW 22:11:16 70° W 22:17:30 10° N
Cosmos 2061 Rocket 4.1 22:12:27 35° SSW 22:15:16 72° W 22:21:32 10° N
H-2A R/B 4.0 22:23:39 22° N 22:23:39 22° N 22:25:10 10° N
Milstar 3 Cent rocket 3.7 22:11:16 10° W 22:31:38 84° S 22:34:14 61° ESE
Hubble Space Telescope 3.7 22:28:46 10° WSW 22:29:06 11° WSW 22:29:06 11° WSW
Envisat 4.1 22:37:26 42° WNW 22:37:26 42° WNW 22:41:22 10° NNW
Cosmos 2227 Rocket 4.2 22:40:57 10° NW 22:44:58 20° W 22:46:14 19° WSW
Cosmos 2297 Rocket 4.2 22:56:18 10° NW 23:00:22 21° W 23:00:22 21° W
